TimeCDT,TemperatureF,Dew PointF,Humidity,Sea Level PressureIn,VisibilityMPH,Wind Direction,Wind SpeedMPH,Gust SpeedMPH,PrecipitationIn,Events,Conditions,WindDirDegrees,DateUTC
12:15 AM,77.2,65.8,68,29.91,10.0,East,8.1,-,N/A,,Overcast,100,2013-04-24 05:15:00
12:35 AM,77.2,65.8,68,29.92,10.0,ESE,6.9,-,N/A,,Overcast,110,2013-04-24 05:35:00
12:55 AM,77.2,66.2,69,29.92,10.0,East,5.8,-,N/A,,Overcast,100,2013-04-24 05:55:00
1:15 AM,77.2,65.8,68,29.92,10.0,ESE,8.1,-,N/A,,Overcast,110,2013-04-24 06:15:00
1:35 AM,77.2,66.2,69,29.92,10.0,East,6.9,-,N/A,,Overcast,100,2013-04-24 06:35:00
1:55 AM,77.2,66.0,68,29.93,10.0,East,8.1,-,N/A,,Overcast,100,2013-04-24 06:55:00
2:15 AM,77.2,66.2,69,29.91,10.0,ESE,8.1,-,N/A,,Overcast,110,2013-04-24 07:15:00
2:35 AM,76.6,65.8,69,29.91,10.0,East,10.4,-,N/A,,Mostly Cloudy,100,2013-04-24 07:35:00
2:55 AM,76.5,66.0,70,29.91,7.0,East,8.1,-,N/A,,Mostly Cloudy,90,2013-04-24 07:55:00
3:15 AM,76.5,66.2,70,29.92,7.0,East,4.6,-,N/A,,Overcast,100,2013-04-24 08:15:00
3:35 AM,77.0,66.2,69,29.92,10.0,ENE,5.8,-,N/A,,Overcast,70,2013-04-24 08:35:00
3:55 AM,76.3,66.2,71,29.93,10.0,NE,4.6,-,N/A,,Overcast,40,2013-04-24 08:55:00
4:15 AM,76.1,66.4,72,29.94,10.0,NE,8.1,-,N/A,,Overcast,50,2013-04-24 09:15:00
4:35 AM,75.9,66.4,72,29.94,7.0,NE,8.1,-,N/A,,Overcast,50,2013-04-24 09:35:00
4:55 AM,75.2,66.4,74,29.94,7.0,NE,4.6,-,N/A,,Overcast,50,2013-04-24 09:55:00
5:15 AM,72.9,61.3,67,29.96,10.0,North,11.5,20.7,N/A,,Overcast,10,2013-04-24 10:15:00
5:35 AM,64.2,56.5,76,29.98,10.0,North,15.0,24.2,N/A,,Overcast,360,2013-04-24 10:35:00
5:55 AM,61.5,54.9,79,29.99,10.0,North,16.1,21.9,N/A,,Overcast,10,2013-04-24 10:55:00
6:15 AM,60.1,54.3,81,30.02,10.0,North,12.7,20.7,N/A,,Light Drizzle,350,2013-04-24 11:15:00
6:35 AM,57.9,52.2,81,30.03,10.0,North,13.8,25.3,N/A,,Light Drizzle,360,2013-04-24 11:35:00
6:55 AM,56.5,51.3,83,30.05,10.0,North,13.8,21.9,N/A,,Drizzle,360,2013-04-24 11:55:00
7:15 AM,54.7,49.1,81,30.06,10.0,North,18.4,28.8,N/A,,Overcast,360,2013-04-24 12:15:00
7:35 AM,54.1,47.5,78,30.10,10.0,North,13.8,26.5,N/A,,Overcast,360,2013-04-24 12:35:00
7:55 AM,53.2,45.7,76,30.12,10.0,North,17.3,25.3,N/A,,Overcast,360,2013-04-24 12:55:00
8:15 AM,53.2,45.5,75,30.14,10.0,North,18.4,-,N/A,,Overcast,360,2013-04-24 13:15:00
8:35 AM,52.9,45.5,76,30.16,10.0,North,11.5,21.9,N/A,,Overcast,360,2013-04-24 13:35:00
8:55 AM,52.7,46.4,79,30.17,5.0,North,8.1,-,N/A,,Haze,350,2013-04-24 13:55:00
9:15 AM,51.4,45.7,81,30.17,5.0,NNW,18.4,24.2,N/A,,Drizzle,340,2013-04-24 14:15:00
9:35 AM,51.3,46.4,83,30.18,5.0,NNW,10.4,19.6,N/A,,Drizzle,340,2013-04-24 14:35:00
9:55 AM,51.3,47.7,87,30.20,4.0,NNW,10.4,-,N/A,,Drizzle,330,2013-04-24 14:55:00
10:15 AM,51.3,47.8,88,30.20,5.0,NNW,12.7,-,N/A,,Overcast,340,2013-04-24 15:15:00
10:35 AM,51.4,48.0,88,30.19,5.0,NNW,10.4,17.3,N/A,,Overcast,340,2013-04-24 15:35:00
10:55 AM,51.6,48.2,88,30.20,1.8,NNW,11.5,19.6,N/A,,Drizzle,330,2013-04-24 15:55:00
11:15 AM,51.6,48.2,88,30.20,3.0,NNW,13.8,-,N/A,,Overcast,330,2013-04-24 16:15:00
11:35 AM,51.4,48.2,89,30.21,3.0,NNW,13.8,18.4,N/A,Rain,Rain,330,2013-04-24 16:35:00
11:55 AM,52.0,48.2,87,30.22,5.0,NNW,11.5,16.1,N/A,Rain,Rain,340,2013-04-24 16:55:00
12:15 PM,52.2,46.8,82,30.22,7.0,NNW,12.7,19.6,N/A,,Overcast,340,2013-04-24 17:15:00
12:35 PM,53.1,45.7,76,30.22,10.0,NNW,12.7,-,N/A,,Overcast,340,2013-04-24 17:35:00
12:55 PM,53.2,45.0,73,30.22,10.0,NW,13.8,18.4,N/A,,Overcast,320,2013-04-24 17:55:00
1:15 PM,54.5,44.6,69,30.21,10.0,NW,9.2,18.4,N/A,,Overcast,320,2013-04-24 18:15:00
1:35 PM,55.2,43.7,65,30.21,10.0,NNW,11.5,17.3,N/A,,Overcast,330,2013-04-24 18:35:00
1:55 PM,55.2,43.9,66,30.20,10.0,NW,12.7,18.4,N/A,,Overcast,320,2013-04-24 18:55:00
2:15 PM,55.4,44.2,66,30.20,10.0,NNW,12.7,17.3,N/A,,Overcast,330,2013-04-24 19:15:00
2:35 PM,55.6,43.9,65,30.19,10.0,NW,15.0,20.7,N/A,,Overcast,320,2013-04-24 19:35:00
2:55 PM,54.7,45.7,72,30.19,10.0,NW,13.8,20.7,N/A,Rain,Rain,320,2013-04-24 19:55:00
3:15 PM,53.8,47.7,80,30.18,5.0,NNW,10.4,-,0.02,Rain,Light Rain,340,2013-04-24 20:15:00
3:35 PM,53.8,47.3,79,30.18,10.0,NNW,12.7,-,0.02,,Overcast,330,2013-04-24 20:35:00
3:55 PM,54.5,46.6,75,30.17,10.0,NNW,9.2,16.1,0.02,,Overcast,330,2013-04-24 20:55:00
4:15 PM,55.0,45.7,71,30.17,10.0,NNW,9.2,-,N/A,,Overcast,330,2013-04-24 21:15:00
4:35 PM,55.8,43.3,63,30.16,10.0,NNW,6.9,-,N/A,,Overcast,330,2013-04-24 21:35:00
4:55 PM,56.5,43.3,61,30.16,10.0,NNW,11.5,-,N/A,,Overcast,340,2013-04-24 21:55:00
5:15 PM,56.7,42.6,59,30.16,10.0,NNW,10.4,-,N/A,,Overcast,340,2013-04-24 22:15:00
5:35 PM,55.4,43.3,64,30.15,7.0,NNW,10.4,-,N/A,,Light Drizzle,330,2013-04-24 22:35:00
5:55 PM,56.3,43.0,61,30.15,10.0,NNW,8.1,-,N/A,,Overcast,330,2013-04-24 22:55:00
6:15 PM,56.8,43.2,60,30.15,10.0,NNW,10.4,-,N/A,,Overcast,330,2013-04-24 23:15:00
6:35 PM,56.8,42.8,59,30.16,10.0,NNW,8.1,-,N/A,,Overcast,330,2013-04-24 23:35:00
6:55 PM,57.4,42.1,57,30.16,10.0,NNW,8.1,-,N/A,,Overcast,330,2013-04-24 23:55:00
7:15 PM,57.2,41.9,57,30.16,10.0,WNW,4.6,-,N/A,,Overcast,300,2013-04-25 00:15:00
7:35 PM,57.2,41.9,57,30.17,10.0,NW,9.2,-,N/A,,Overcast,310,2013-04-25 00:35:00
7:55 PM,57.2,41.9,57,30.18,10.0,NW,8.1,-,N/A,,Overcast,310,2013-04-25 00:55:00
8:15 PM,57.2,41.9,57,30.18,10.0,WNW,5.8,-,N/A,,Overcast,300,2013-04-25 01:15:00
8:35 PM,57.2,42.4,58,30.19,10.0,West,4.6,-,N/A,,Overcast,280,2013-04-25 01:35:00
8:55 PM,57.0,42.4,58,30.20,10.0,WNW,5.8,-,N/A,,Overcast,300,2013-04-25 01:55:00
10:15 PM,57.4,41.2,55,30.23,10.0,WNW,3.5,-,N/A,,Overcast,290,2013-04-25 03:15:00
10:35 PM,57.4,41.0,54,30.23,10.0,WNW,3.5,-,N/A,,Overcast,290,2013-04-25 03:35:00
10:55 PM,57.4,41.4,55,30.23,10.0,Calm,Calm,-,N/A,,Overcast,0,2013-04-25 03:55:00
11:15 PM,57.6,41.5,55,30.24,10.0,Calm,Calm,-,N/A,,Overcast,0,2013-04-25 04:15:00
11:35 PM,57.6,41.5,55,30.23,10.0,Calm,Calm,-,N/A,,Overcast,0,2013-04-25 04:35:00
11:55 PM,57.6,41.9,56,30.24,10.0,Calm,Calm,-,N/A,,Overcast,0,2013-04-25 04:55:00